When you browse on this site, cookies collect data to enhance your experience and personalize the content and advertising you see.
Visit our Privacy Policy to learn more. By continuing to use the site, you agree to this use of cookies and data.
  • In Austria
  • List of Countries
  • For 7 days
  • Water Temperature
  • Satellite Maps
  • Weather Map
  • News
  • Weather Widgets
  • user-avatar
    Login

    Hourly Weather Stillwater

    Today, 17 February, Sunday

    Time Temperature Precipitation Wind Pressure Humidity
    00:00 +1°C° 0 mm 2 mps 729 mmHg 96%
    01:00 +1°C° 0 mm 2 mps 729 mmHg 95%
    02:00 +1°C° 0 mm 2 mps 730 mmHg 95%
    03:00 +1°C° 0 mm 2 mps 730 mmHg 94%
    04:00 0°C° 0 mm 3 mps 731 mmHg 92%
    05:00 -2°C° 0 mm 4 mps 732 mmHg 90%
    06:00 -4°C° 0 mm 5 mps 732 mmHg 87%
    07:00 -2°C° 0 mm 5 mps 733 mmHg 80%
    08:00 -2°C° 0 mm 5 mps 734 mmHg 73%
    09:00 -2°C° 0 mm 5 mps 735 mmHg 66%
    10:00 0°C° 0 mm 5 mps 736 mmHg 60%
    11:00 +2°C° 0 mm 5 mps 736 mmHg 54%
    12:00 +5°C° 0 mm 5 mps 737 mmHg 48%
    13:00 +6°C° 0 mm 5 mps 737 mmHg 46%
    14:00 +6°C° 0 mm 5 mps 736 mmHg 43%
    15:00 +7°C° 0 mm 5 mps 736 mmHg 40%
    16:00 +6°C° 0 mm 5 mps 737 mmHg 44%
    17:00 +5°C° 0 mm 4 mps 738 mmHg 47%
    18:00 +4°C° 0 mm 4 mps 738 mmHg 50%
    19:00 +1°C° 0 mm 4 mps 739 mmHg 54%
    20:00 0°C° 0 mm 4 mps 740 mmHg 58%
    21:00 -1°C° 0 mm 4 mps 741 mmHg 61%
    22:00 -2°C° 0 mm 4 mps 741 mmHg 64%
    23:00 -3°C° 0 mm 4 mps 742 mmHg 67%

    Tomorrow, 18 February, Monday

    Time Temperature Precipitation Wind Pressure Humidity
    00:00 -3°C° 0 mm 4 mps 742 mmHg 70%
    01:00 -4°C° 0 mm 4 mps 743 mmHg 70%
    02:00 -4°C° 0 mm 4 mps 743 mmHg 69%
    03:00 -4°C° 0 mm 4 mps 743 mmHg 69%
    04:00 -5°C° 0 mm 4 mps 744 mmHg 67%
    05:00 -5°C° 0 mm 4 mps 744 mmHg 66%
    06:00 -5°C° 0 mm 4 mps 744 mmHg 64%
    07:00 -6°C° 0 mm 5 mps 745 mmHg 59%
    08:00 -5°C° 0 mm 6 mps 745 mmHg 53%
    09:00 -5°C° 0 mm 6 mps 746 mmHg 48%
    10:00 -3°C° 0 mm 6 mps 746 mmHg 43%
    11:00 -1°C° 0 mm 5 mps 746 mmHg 38%
    12:00 +1°C° 0 mm 5 mps 746 mmHg 34%
    13:00 +1°C° 0 mm 5 mps 746 mmHg 35%
    14:00 +2°C° 0 mm 5 mps 745 mmHg 36%
    15:00 +3°C° 0 mm 5 mps 744 mmHg 37%
    16:00 +2°C° 0 mm 5 mps 745 mmHg 41%
    17:00 +1°C° 0 mm 5 mps 745 mmHg 44%
    18:00 +1°C° 0 mm 5 mps 745 mmHg 48%
    19:00 0°C° 0 mm 5 mps 745 mmHg 53%
    20:00 -1°C° 0 mm 5 mps 745 mmHg 57%
    21:00 -4°C° 0 mm 5 mps 746 mmHg 62%
    22:00 -4°C° 0 mm 5 mps 746 mmHg 65%
    23:00 -4°C° 0 mm 6 mps 745 mmHg 69%

    Day after tomorrow, 19 February, Tuesday

    Time Temperature Precipitation Wind Pressure Humidity
    00:00 -5°C° 0 mm 6 mps 745 mmHg 72%
    01:00 -5°C° 0 mm 6 mps 745 mmHg 75%
    02:00 -5°C° 0 mm 6 mps 744 mmHg 78%
    03:00 -5°C° 0 mm 6 mps 743 mmHg 82%
    04:00 -5°C° 0 mm 6 mps 743 mmHg 83%
    05:00 -5°C° 0 mm 6 mps 743 mmHg 85%
    06:00 -5°C° 0 mm 5 mps 742 mmHg 87%
    07:00 -4°C° 1.5 mm 5 mps 742 mmHg 89%
    08:00 -4°C° 1.5 mm 5 mps 742 mmHg 92%
    09:00 -4°C° 1.5 mm 5 mps 741 mmHg 94%
    10:00 -4°C° 0.7 mm 5 mps 741 mmHg 94%
    11:00 -4°C° 0.7 mm 5 mps 740 mmHg 93%
    12:00 -2°C° 0.7 mm 5 mps 740 mmHg 93%
    13:00 -2°C° 0.5 mm 5 mps 739 mmHg 94%
    14:00 -2°C° 0.5 mm 5 mps 738 mmHg 94%
    15:00 -2°C° 0.5 mm 4 mps 737 mmHg 95%
    16:00 -2°C° 0.1 mm 4 mps 737 mmHg 96%
    17:00 -1°C° 0.1 mm 3 mps 737 mmHg 96%
    18:00 -1°C° 0.1 mm 2 mps 736 mmHg 97%
    19:00 -1°C° 0 mm 2 mps 736 mmHg 97%
    20:00 +1°C° 0 mm 1 mps 736 mmHg 98%
    21:00 0°C° 0 mm 0 mps 736 mmHg 98%
    22:00 0°C° 0 mm 0 mps 736 mmHg 98%
    23:00 -1°C° 0 mm 0 mps 736 mmHg 97%

    20 February, Wednesday

    Time Temperature Precipitation Wind Pressure Humidity
    00:00 -2°C° 0 mm 0 mps 735 mmHg 96%
    01:00 0°C° 0 mm 1 mps 735 mmHg 96%
    02:00 -2°C° 0 mm 2 mps 735 mmHg 96%
    03:00 -2°C° 0 mm 3 mps 735 mmHg 96%
    04:00 -2°C° 0 mm 3 mps 736 mmHg 95%
    05:00 -2°C° 0 mm 2 mps 736 mmHg 94%
    06:00 -2°C° 0 mm 2 mps 737 mmHg 93%
    07:00 -2°C° 0 mm 3 mps 737 mmHg 93%
    08:00 -2°C° 0 mm 3 mps 738 mmHg 92%
    09:00 -2°C° 0 mm 3 mps 738 mmHg 91%
    10:00 -1°C° 0 mm 3 mps 738 mmHg 91%
    11:00 0°C° 0 mm 3 mps 738 mmHg 90%
    12:00 +1°C° 0 mm 2 mps 738 mmHg 90%
    13:00 +2°C° 0 mm 2 mps 738 mmHg 87%
    14:00 +3°C° 0 mm 2 mps 738 mmHg 84%
    15:00 +3°C° 0 mm 2 mps 737 mmHg 82%
    16:00 +3°C° 0 mm 2 mps 737 mmHg 83%
    17:00 +2°C° 0 mm 2 mps 738 mmHg 85%
    18:00 +3°C° 0 mm 1 mps 738 mmHg 87%
    19:00 +3°C° 0 mm 1 mps 738 mmHg 88%
    20:00 +2°C° 0 mm 1 mps 739 mmHg 89%
    21:00 +1°C° 0 mm 1 mps 739 mmHg 89%
    22:00 -1°C° 0 mm 2 mps 739 mmHg 90%
    23:00 -1°C° 0 mm 2 mps 739 mmHg 91%

    21 February, Thursday

    Time Temperature Precipitation Wind Pressure Humidity
    00:00 -2°C° 0 mm 3 mps 739 mmHg 91%
    01:00 -2°C° 0 mm 3 mps 740 mmHg 91%
    02:00 -2°C° 0 mm 3 mps 740 mmHg 91%
    03:00 -1°C° 0 mm 3 mps 740 mmHg 91%
    04:00 -1°C° 0 mm 3 mps 740 mmHg 90%
    05:00 -1°C° 0 mm 3 mps 740 mmHg 90%
    06:00 -3°C° 0 mm 4 mps 740 mmHg 90%
    07:00 -2°C° 0.1 mm 4 mps 740 mmHg 90%
    08:00 -2°C° 0.1 mm 4 mps 740 mmHg 90%
    09:00 -1°C° 0.1 mm 4 mps 740 mmHg 90%
    10:00 -1°C° 0.7 mm 4 mps 740 mmHg 91%
    11:00 0°C° 0.7 mm 4 mps 739 mmHg 92%
    12:00 0°C° 0.7 mm 4 mps 739 mmHg 92%
    13:00 +2°C° 0.9 mm 3 mps 739 mmHg 93%
    14:00 +2°C° 0.9 mm 3 mps 738 mmHg 93%
    15:00 +3°C° 0.9 mm 3 mps 738 mmHg 94%
    16:00 +3°C° 0.1 mm 3 mps 738 mmHg 95%
    17:00 +3°C° 0.1 mm 3 mps 738 mmHg 96%
    18:00 +4°C° 0.1 mm 2 mps 738 mmHg 97%
    19:00 +3°C° 0 mm 2 mps 738 mmHg 97%
    20:00 +3°C° 0 mm 2 mps 739 mmHg 97%
    21:00 +3°C° 0 mm 2 mps 739 mmHg 97%
    22:00 +3°C° 0 mm 2 mps 739 mmHg 97%
    23:00 +2°C° 0 mm 2 mps 739 mmHg 97%

    22 February, Friday

    Time Temperature Precipitation Wind Pressure Humidity
    00:00 +2°C° 0 mm 2 mps 739 mmHg 98%
    01:00 +2°C° 0 mm 2 mps 739 mmHg 98%
    02:00 +2°C° 0 mm 2 mps 739 mmHg 98%
    03:00 +2°C° 0 mm 2 mps 739 mmHg 98%
    04:00 +2°C° 0 mm 2 mps 739 mmHg 98%
    05:00 +2°C° 0 mm 2 mps 739 mmHg 97%
    06:00 +2°C° 0 mm 2 mps 739 mmHg 97%
    07:00 +3°C° 0 mm 2 mps 740 mmHg 96%
    08:00 +3°C° 0 mm 2 mps 740 mmHg 95%
    09:00 +4°C° 0 mm 2 mps 740 mmHg 94%
    10:00 +5°C° 0 mm 3 mps 740 mmHg 88%
    11:00 +7°C° 0 mm 3 mps 740 mmHg 83%
    12:00 +8°C° 0 mm 4 mps 740 mmHg 77%
    13:00 +8°C° 0 mm 4 mps 739 mmHg 78%
    14:00 +8°C° 0 mm 4 mps 738 mmHg 79%
    15:00 +8°C° 0 mm 4 mps 738 mmHg 79%
    16:00 +8°C° 0 mm 4 mps 737 mmHg 82%
    17:00 +7°C° 0 mm 4 mps 737 mmHg 84%
    18:00 +7°C° 0 mm 4 mps 737 mmHg 87%
    19:00 +7°C° 0.2 mm 4 mps 737 mmHg 89%
    20:00 +8°C° 0.2 mm 3 mps 737 mmHg 91%
    21:00 +8°C° 0.2 mm 2 mps 737 mmHg 92%
    22:00 +8°C° 1.6 mm 2 mps 737 mmHg 94%
    23:00 +8°C° 1.6 mm 2 mps 736 mmHg 95%
    Show more